Location: Unspecified
(0.0000°N, 0.0000°E)
Time: 13:43:38
(UTC+00:00)

Vanguard 1 - Pass Details

Date: 19 November 2019
Orbit: 652 x 3831 km, 34.3° (Epoch: 08 December)

Event Time Altitude Azimuth Distance (km) Brightness Sun altitude
Rises 07:17:58 0° 240° (WSW) 7,885 14.3 21.8°
Reaches altitude 10° 07:23:49 10° 243° (WSW) 6,654 14.0 23.1°
Maximum altitude 07:43:42 61° 319° (NW) 2,768 12.4 27.8°
Drops below altitude 10° 07:54:49 10° 38° (NE) 3,946 13.4 30.3°
Sets 07:57:23 0° 43° (NE) 4,618 13.7 30.9°
